Location: Caltech
(34.1382°N, 118.1253°W)
Time: 04:23:25
(UTC-07:00)

Daily predictions for brighter satellites

Satellite Brightness Start Highest point End
(mag) Time Altitude Azimuth Time Altitude Azimuth Time Altitude Azimuth
Mayak 0.8 00:01:09 10° NNE 00:02:54 24° NNE 00:02:54 24° NNE
Cosmos 2074 Rocket 4.0 00:01:29 10° N 00:07:17 76° NNE 00:07:17 76° NNE
ATLAS 3B R/B 4.0 00:14:33 10° NW 00:18:56 25° W 00:18:56 25° W
CZ-4B R/B 4.3 00:33:44 10° N 00:37:37 50° N 00:37:37 50° N
Meteor 2-10 Rocket 4.4 00:35:22 10° N 00:39:01 47° N 00:39:01 47° N
Cosmos 2369 Rocket 3.0 00:49:00 46° NE 00:49:00 46° NE 00:52:58 10° NNE
Cosmos 2154 Rocket 4.2 00:45:47 10° N 00:51:24 69° NNW 00:51:24 69° NNW
Cosmos 2181 Rocket 4.3 00:53:21 61° NE 00:53:21 61° NE 00:58:47 10° NNE
Cosmos 1140 Rocket 4.5 00:55:25 42° N 00:55:25 42° N 00:58:58 10° N
Cosmos 2341 Rocket 4.1 00:59:41 10° N 01:05:24 73° N 01:05:24 73° N
Cosmos 2082 Rocket 4.1 01:04:34 10° NW 01:07:03 20° WNW 01:07:03 20° WNW
Cosmos 2218 Rocket 4.4 01:11:02 10° N 01:16:43 55° ENE 01:16:43 55° ENE
SL-8 Rocket 4.2 01:11:55 10° N 01:17:41 67° NE 01:17:41 67° NE
ADEOS Rocket 4.4 01:19:07 10° NNW 01:24:10 28° WNW 01:24:47 28° WNW
CENTAUR R/B 3.8 01:21:56 10° NW 01:28:33 39° W 01:28:33 39° W
Cosmos 1943 Rocket 2.7 01:31:10 54° NNW 01:31:10 54° NNW 01:35:38 10° NNE
Lacrosse 4 Rocket 3.7 01:38:39 22° ENE 01:38:39 22° ENE 01:40:27 10° NE
USA 234 3.9 01:30:35 10° NNE 01:36:50 50° NW 01:38:28 41° W
CZ-2D R/B 4.3 01:37:29 10° ENE 01:40:34 16° E 01:40:34 16° E
BREEZE-M TANK 4.4 01:42:28 27° NNE 01:42:28 27° NNE 01:43:49 10° NE
Timation 2 Rocket 4.2 01:37:38 10° NNW 01:43:47 69° WNW 01:43:47 69° WNW
Cosmos 2366 rocket 4.0 01:39:31 10° N 01:45:10 76° N 01:45:10 76° N
SL-16 R/B 4.3 01:49:06 15° ESE 01:52:31 24° ENE 01:57:16 10° NNE
Nadezhda 3 Rocket 4.3 01:53:05 56° E 01:53:15 56° E 01:59:27 10° NNE
Meteor 1-26 Rocket 4.4 01:58:55 10° N 02:03:44 64° NNW 02:03:44 64° NNW
Resurs 1-4 Rocket 3.5 02:01:18 10° NE 02:05:51 28° E 02:05:53 28° E
CZ-4B R/B 4.4 02:10:04 14° N 02:10:04 14° N 02:10:36 10° N
Cosmos 1763 Rocket 4.4 02:03:29 10° N 02:08:16 41° ENE 02:08:30 41° ENE
GP-B 4.1 02:10:57 10° N 02:14:11 44° NNE 02:14:11 44° NNE
Cosmos 44 4.3 02:30:17 38° E 02:30:17 38° E 02:34:00 10° NE
Cosmos 1814 Rocket 4.2 02:25:06 10° N 02:30:20 62° ENE 02:30:39 61° E
Cosmos 2369 Rocket 4.3 02:30:46 14° WNW 02:31:52 15° NW 02:35:04 10° NNW
Cosmos 1862 4.4 02:39:26 43° NNE 02:39:26 43° NNE 02:42:15 10° NNE
Cosmos 841 Rocket 3.9 02:34:37 10° N 02:39:45 57° ENE 02:40:39 49° ESE
Cosmos 1867 3.9 02:39:48 54° WNW 02:39:52 54° WNW 02:45:14 10° NNE
Cosmos 1825 4.5 02:42:56 17° NW 02:42:56 17° NW 02:44:14 10° NNW
Cosmos 1821 Rocket 3.9 02:39:15 10° N 02:45:36 90° W 02:46:50 61° S
Cosmos 1703 Rocket 3.9 02:41:49 10° N 02:45:46 60° NE 02:45:46 60° NE
Okean 1-7 3.7 02:45:29 10° N 02:49:45 49° E 02:49:55 49° E
H-2A R/B 3.1 02:46:49 10° NNE 02:49:54 50° NE 02:49:54 50° NE
ATLAS 2A CENTAUR R/B 4.1 02:48:02 39° SSW 02:50:54 44° S 02:58:40 10° ESE
Cosmos 292 Rocket 3.7 02:50:12 10° NNW 02:54:53 84° NNW 02:54:53 84° NNW
Cosmos 1818 3.5 02:50:57 10° NNW 02:56:10 68° W 02:56:10 68° W
ATLAS 5 CENTAUR R/B 2.9 02:58:40 58° SW 02:59:52 86° NW 03:15:12 10° NE
IRS-1C 4.0 02:55:20 10° NNE 03:00:41 89° ESE 03:01:24 68° SSW
IRS-1D 3.3 02:58:49 10° NNE 03:03:55 83° E 03:04:32 69° S
Cosmos 967 Rocket 4.4 03:07:27 53° SSW 03:09:07 87° WNW 03:15:39 10° NNE
SL-08 R/B 3.1 03:09:18 76° SSW 03:09:34 80° WSW 03:14:17 10° NNW
Cosmos 1354 Rocket 3.9 03:10:31 64° S 03:11:21 86° ESE 03:16:36 10° NNE
Meteor 1-4 Rocket 3.0 03:12:31 59° NNE 03:12:31 59° NNE 03:15:34 10° N
MOZ.5/SAFIR/RUBIN 5/SL-8 3.9 03:12:14 49° SE 03:13:24 74° ENE 03:18:04 10° N
ADEOS II 3.8 03:09:14 10° NE 03:13:38 26° E 03:16:50 15° SE
Lacrosse 4 Rocket 3.5 03:14:58 18° WNW 03:15:12 18° NW 03:18:17 10° N
NPP 4.2 03:10:23 10° N 03:15:25 42° WNW 03:16:07 40° W
USA 229 DEB 4.4 03:09:06 10° NNW 03:16:15 58° NE 03:23:32 10° SE
USA 229 4.4 03:09:13 10° NNW 03:16:22 57° NE 03:23:39 10° SE
MINOTAUR IV R/B 4.4 03:16:19 10° NNW 03:20:47 73° WSW 03:20:52 73° WSW
CZ-2D R/B 2.4 03:15:44 10° N 03:20:55 53° WNW 03:21:53 47° WSW
COSMOS 2455 2.7 03:16:17 10° NNW 03:22:21 86° WSW 03:26:40 20° SSE
Cosmos 1437 Rocket 3.5 03:23:44 41° WNW 03:23:44 41° WNW 03:27:15 10° N
GPS 2-04 Rocket1 2.7 03:25:11 77° SSE 03:25:11 77° SSE 03:29:13 10° E
Cosmos 1812 4.0 03:23:06 10° N 03:26:45 38° E 03:28:33 24° SE
Cosmos 389 Rocket 3.0 03:28:28 49° ESE 03:28:51 53° E 03:32:25 10° NNE
Cosmos 1697 Rocket 4.1 03:26:13 17° SSE 03:29:34 31° ESE 03:34:29 10° NE
Cosmos 968 Rocket 3.6 03:27:58 40° S 03:29:47 69° ESE 03:35:02 10° NNE
ATLAS CENTAUR R/B 1.0 03:29:54 87° WSW 03:29:56 88° WNW 03:33:52 10° NNE
H-II Stage 2 4.3 03:31:27 32° SSW 03:33:36 36° S 04:04:14 10° SE
SL-16 R/B 2.8 03:34:12 39° SW 03:35:45 46° W 03:41:39 10° NNW
Cosmos 1503 Rocket 4.4 03:39:01 39° WSW 03:40:16 46° WNW 03:45:15 10° N
Cosmos 1605 Rocket 3.9 03:35:47 10° NNW 03:41:49 67° W 03:44:59 30° SSW
Delta 2 Rocket 3.6 03:43:12 28° WNW 03:45:27 77° N 03:50:18 10° E
Resurs 1-4 Rocket 3.2 03:41:00 10° N 03:45:34 30° WNW 03:46:58 26° W
Genesis I 3.6 03:42:07 10° NNW 03:46:10 65° ENE 03:50:09 10° SE
CZ-2D R/B 3.3 03:43:31 10° NNE 03:47:44 88° WNW 03:49:03 43° SSW
SL-8 R/B 4.3 03:44:00 10° NW 03:48:46 58° NE 03:53:30 10° ESE
Cosmos 2369 3.7 03:46:21 30° S 03:49:12 77° ESE 03:54:51 10° NNE
Cosmos 2219 3.1 03:45:29 10° NNW 03:51:04 63° WSW 03:55:11 18° S
ARIANE 5 R/B 3.0 03:47:37 10° N 03:52:20 43° WNW 03:53:59 32° WSW
Cosmos 2100 Rocket 4.5 03:48:44 10° N 03:54:51 61° E 04:01:00 10° SSE
CZ-3C R/B 4.0 03:52:56 15° S 03:54:54 16° SSE 04:04:51 10° SE
Cosmos 1980 Rocket 3.8 03:51:45 10° SSE 03:56:27 29° ESE 04:01:13 10° NE
Helios 1A Rocket 2.8 03:58:28 10° N 04:02:28 68° WNW 04:04:06 34° SSW
Cosmos 1633 2.9 04:02:07 40° WSW 04:02:41 43° W 04:06:09 10° N
Cosmos 540 Rocket 4.0 03:58:18 10° NW 04:02:58 36° W 04:04:32 29° SW
Cosmos 374 Rocket 4.2 04:00:15 10° NNW 04:04:40 82° WSW 04:08:32 10° SSE
Cosmos 44 Rocket 4.2 04:03:53 25° WSW 04:05:56 36° NW 04:10:32 10° NNE
Gbstr 26 Del rocket 3.4 04:08:46 26° S 04:10:22 42° SE 04:14:06 10° ENE
Cosmos 1271 Rocket 3.3 04:12:40 14° S 04:15:57 57° E 04:19:49 10° NNE
Cosmos 2297 Rocket 2.3 04:10:25 10° NNW 04:16:05 78° ENE 04:21:43 10° SSE
Cosmos 2278 3.7 04:12:39 23° SSW 04:16:14 71° WNW 04:21:54 10° NNE
Centaur AC-42 3.9 04:17:27 10° SSE 04:18:06 10° SSE 04:18:47 10° SE
Milstar 3 Cent rocket 3.9 04:02:43 10° W 04:20:15 66° S 04:28:08 10° ESE
Okean 1 3.7 04:17:32 10° N 04:21:29 63° E 04:25:24 10° SSE
Cosmos 2227 Rocket 2.1 04:19:00 10° NNW 04:24:42 80° WSW 04:30:20 10° SSE
Okean 3 3.4 04:22:22 10° NNW 04:26:32 66° W 04:30:42 10° S
ADEOS 4.2 04:24:14 10° N 04:29:03 39° WNW 04:32:32 17° SW
Shenzhou-11 Module 1.8 04:29:32 27° SW 04:30:57 79° SSE 04:33:55 10° ENE
Cosmos 192 4.3 04:26:27 10° NNW 04:31:25 78° WSW 04:36:21 10° S
NOSS 3-1 (C) 4.1 04:23:53 10° NNW 04:31:47 78° WSW 04:40:23 10° SSE
UNKNOWN OBJECT B 4.3 04:29:51 10° NNW 04:33:05 24° WNW 04:34:59 17° WSW
Meteor 2-12 Rocket 4.5 04:28:55 10° NNW 04:34:56 63° W 04:40:55 10° S
Cosmos 2173 Rocket 4.0 04:30:28 10° NNW 04:36:29 65° W 04:42:30 10° S
Cosmos 1782 Rocket 3.6 04:37:42 10° S 04:42:07 84° E 04:46:31 10° N
Cosmos 1378 Rocket 3.5 04:37:44 10° N 04:42:11 73° W 04:46:36 10° S
NOSS 7 (H) 4.4 04:40:37 15° SSW 04:43:41 86° ESE 04:47:00 10° NNE
SeaSat 1 4.5 04:43:08 10° ESE 04:47:30 32° ENE 04:51:52 10° N
ADEOS II 3.0 04:48:41 10° N 04:53:16 31° WNW 04:57:47 10° SW
Lacrosse 5 rocket 2.2 04:50:36 10° SSW 04:54:46 51° SE 04:59:10 10° NE
Aureole 3 4.2 04:49:44 10° SSW 04:55:55 66° W 05:00:46 10° N
Cosmos 1538 Rocket 4.1 04:52:30 10° NNW 04:57:54 86° WSW 05:03:14 10° SSE
Meteosat 1 Rocket2 3.8 04:54:23 11° WSW 04:58:19 32° S 05:01:44 10° ESE
Cosmos 2082 3.8 04:54:54 10° NNW 05:00:22 52° WSW 05:05:46 10° S
PSLV R/B 3.1 04:58:55 10° WNW 05:01:47 48° SSW 05:04:38 10° SE
GPS 2-04 Rocket1 3.0 05:00:47 10° W 05:04:55 69° N 05:08:52 10° E
Cosmos 2016 Rocket 4.2 04:59:01 10° NNW 05:05:12 55° W 05:11:19 10° SSW
ATLAS 2A CENTAUR R/B 3.1 04:56:28 10° WSW 05:06:39 47° S 05:11:25 10° ESE
Cosmos 2322 Rocket 3.8 05:01:40 10° SSE 05:06:42 34° ESE 05:11:43 10° NE
Cosmos 2360 4.3 05:01:17 10° SSW 05:06:54 64° WNW 05:12:34 10° NNE
NOSS 3-1 (A) 4.2 05:00:23 10° NW 05:08:14 65° WSW 05:16:46 10° SSE
NOSS 2-1 (C) 3.1 05:07:54 10° SW 05:11:32 72° WNW 05:15:17 10° NNE
NOSS 2-1 (D) 3.2 05:09:15 10° SW 05:12:52 68° WNW 05:16:37 10° NNE
Cosmos 1697 Rocket 3.7 05:08:29 10° WSW 05:13:25 31° WNW 05:18:23 10° N
